Other Surface Observations
Issued by NWS

Home | Current Version | Previous Version | Text Only | Print | Product List | Glossary On
Versions: 1 2 3 4 5 6 7 8 9 10 11 12 13 14 15 16 17 18 19 20 21 22 23 24 25 26 27 28 29 30 31 32 33 34 35 36 37 38 39 40 41 42 43 44 45 46 47 48 49 50
000
SXUS52 KTAE 032018
OSOTAE
OSOTAE
North Florida/South Alabama/Southwest Georgia Weather Roundup
National Weather Service Tallahassee Florida
400 PM EDT FRI JUL 03 2015

Note: "fair" indicates few or no clouds below 12,000 feet with no
significant weather and/or obstructions to visibility.

!FLZ017-115-028-034-025-032100
...North Florida...

CITY           SKY/WX    TMP DP  RH WIND       PRES   REMARKS
TALLAHASSEE    PTSUNNY   94  70  45 S8        30.03F HX 100
APALACHICOLA   SUNNY     93  73  52 SW12      30.05F HX 102
PERRY          SUNNY     89  71  55 S7        30.05F HX  95
CROSS CITY       N/A     93  71  48 SW6       30.05F HX 100
JACKSONVILLE   MOSUNNY   93  68  43 W8        30.02F HX  97
$$

!FLZ112-006-005-002-011-032100
...Florida Panhandle...

CITY           SKY/WX    TMP DP  RH WIND       PRES   REMARKS
MARIANNA       MOSUNNY   93  69  45 W8        30.02F HX  98
BONIFAY        FAIR      90  72  55 SW5       30.04F HX  97
PANAMA CITY NW FAIR      91  70  49 SW9       30.03F HX  96
TYNDALL AFB    MOSUNNY   87  77  72 SW9       30.06F HX  99
TYND DRONE APT FAIR      86  79  78 SW7       30.05F HX  99
DE FUNIAK SPR  FAIR      91  73  55 SW5       30.04F HX  98
EGLIN AFB      PTSUNNY   89  75  64 S16       30.03F HX  99
DESTIN         SUNNY     88  77  69 VRB7      30.04F HX 100
HURLBURT       MOSUNNY   88  75  64 S14       30.03F HX  97
CRESTVIEW      SUNNY     93  72  50 W7        30.04F HX 101
PENSACOLA      MOSUNNY   91  76  61 S15       30.03F HX 103
$$

!ALZ063-066-032100
...South Alabama...

CITY           SKY/WX    TMP DP  RH WIND       PRES   REMARKS
DOTHAN         MOSUNNY   91  72  53 SW10G20   30.07F HX  98
OZARK CAIRNS   MOSUNNY   91  72  54 W10       30.03F HX  98
FT RUCKER HELI MOSUNNY   92  71  50 SW9       30.02F HX  98
RUCKER HELI 3  FAIR      90  70  51 SW7G16    30.05F HX  95
RUCKER HELI 2  FAIR      89  73  59 VRB7      30.02F HX  97
FLORALA APT    SUNNY     91  71  51 S5        30.05F HX  97
ANDALUSIA      MOSUNNY   96  69  41 W7        30.03F HX 102
TROY           PTSUNNY   91  72  53 W7        30.04F HX  98
EUFALA         FAIR      93  72  50 SW8       30.01F HX 101
MOBILE         PTSUNNY   90  74  59 S13       30.04F HX  99
$$

!GAZ120>161-032100
...Southwest and South Central Georgia...

CITY           SKY/WX    TMP DP  RH WIND       PRES   REMARKS
THOMASVILLE    FAIR      90  72  55 W3        30.05F HX  96
BAINBRIDGE     MOSUNNY   95  73  49 W10       30.04F HX 105
MOODY AFB      MOSUNNY   92  70  48 SW9       30.03F HX  98
VALDOSTA       SUNNY     93  71  48 VRB3      30.04F HX 100
MOULTRIE       MOSUNNY   90  72  55 SW6       30.05F HX  96
BLAKELY        PTSUNNY   91  77  62 SW7       30.04F HX 105
ALBANY         MOSUNNY   91  71  51 SW12      30.04F HX  97
TIFTON         FAIR      89  69  50 SW9G17    30.04F HX  93
FITZGERALD     FAIR      91  72  53 SW10      30.05F HX  97
CORDELE        FAIR      92  74  54 W14       30.03F HX 102
AMERICUS       FAIR      91  63  38 W15G24    30.03F HX  92
HOMERVILLE     FAIR      95  73  49 NW13      30.04F HX 105
$$

!GMZ750-755-770-775-032100
...Coastal and Buoy Obs...

STATION/POSITION TIME  TEMP    WIND        PRES    VSBY  WAVE
                       AIR SEA DIR/SP/G                  HT/PER
                 (UTC) (F)     (DEG/KT/KT) (MB)    (MI)  (FT/S)
KEATON BEACH     2000   84     240/  7/  8 1018.0F
CEDAR KEY        2000   87     290/  8/ 11 1018.3F
C TOWER          2000   83     230/  6/  7 1018.0F
APALACHICOLA BUO 1950   86 89  230/  2/  4 1018.5F         1/ 7
PANAMA CITY BUOY 1950   85 86  210/  4/  6 1018.5F         2/ 7
MOBILE BUOY      1950   85 88  230/  6/  8 1018.3F         2/ 7
ORANGE BCH AL BU 1950   84 84  230/  6/  8 1017.1F         2/ 4
$$



USA.gov is the U.S. government's official web portal to all federal, state and local government web resources and services.